Вернуться в каталог

STARLINK-38059

АктивенСвязьSSO
NORAD 69714·PAYLOAD·🇺🇸 United States

Запущен Jun 28, 2026 с Vandenberg Space Force Base

Loading…

Ближайшие Пролёты (ближайшие 24 часа)

TLE

СвежийSource: CelesTrak SupGP

Эпоха: Sep 15, 2026, 04:06 UTC

1 69714C 26147L   26258.17131944 -.00048666  00000+0 -15109-2 0  2587
2 69714  97.2836 294.5956 0000913 102.0037 359.9615 15.33459786    10

Отслеживайте STARLINK-38059 в реальном времени с AllMySat

Download on the App Store